• In Uzbekistan
  • List of Countries
  • For 7 days
  • Water Temperature
  • Satellite Maps
  • Weather Map
  • Weather Widgets
  • user-avatar
    Login

    Hourly Weather Bolshelug

    Today, 18 October, Thursday

    Time Temperature Precipitation Wind Pressure Humidity
    00:00 +2°C° 0 mm 3 mps 753 mmHg 85%
    01:00 +3°C° 0 mm 2 mps 753 mmHg 86%
    02:00 +3°C° 0 mm 2 mps 753 mmHg 87%
    03:00 +2°C° 0 mm 2 mps 753 mmHg 89%
    04:00 +2°C° 0 mm 2 mps 753 mmHg 89%
    05:00 +3°C° 0 mm 2 mps 752 mmHg 89%
    06:00 +4°C° 0 mm 1 mps 752 mmHg 89%
    07:00 +3°C° 0 mm 2 mps 752 mmHg 87%
    08:00 +3°C° 0 mm 2 mps 752 mmHg 84%
    09:00 +4°C° 0 mm 2 mps 751 mmHg 80%
    10:00 +4°C° 0 mm 2 mps 751 mmHg 79%
    11:00 +5°C° 0 mm 2 mps 750 mmHg 78%
    12:00 +4°C° 0 mm 3 mps 749 mmHg 76%
    13:00 +4°C° 0.3 mm 3 mps 749 mmHg 78%
    14:00 +4°C° 0.3 mm 3 mps 748 mmHg 81%
    15:00 +3°C° 0.3 mm 3 mps 747 mmHg 83%
    16:00 +3°C° 0.4 mm 4 mps 746 mmHg 85%
    17:00 +4°C° 0.4 mm 4 mps 746 mmHg 87%
    18:00 +4°C° 0.4 mm 4 mps 745 mmHg 89%
    19:00 +4°C° 0.2 mm 3 mps 744 mmHg 91%
    20:00 +4°C° 0.2 mm 3 mps 744 mmHg 93%
    21:00 +5°C° 0.2 mm 3 mps 743 mmHg 94%
    22:00 +5°C° 0.1 mm 3 mps 743 mmHg 95%
    23:00 +7°C° 0.1 mm 3 mps 743 mmHg 95%

    Tomorrow, 19 October, Friday

    Time Temperature Precipitation Wind Pressure Humidity
    00:00 +7°C° 0.1 mm 3 mps 743 mmHg 96%
    01:00 +7°C° 0 mm 3 mps 743 mmHg 96%
    02:00 +8°C° 0 mm 3 mps 743 mmHg 96%
    03:00 +8°C° 0 mm 2 mps 743 mmHg 96%
    04:00 +8°C° 0 mm 2 mps 742 mmHg 96%
    05:00 +8°C° 0 mm 2 mps 742 mmHg 96%
    06:00 +8°C° 0 mm 2 mps 742 mmHg 97%
    07:00 +8°C° 0.5 mm 3 mps 741 mmHg 96%
    08:00 +8°C° 0.5 mm 3 mps 740 mmHg 95%
    09:00 +8°C° 0.5 mm 3 mps 740 mmHg 94%
    10:00 +7°C° 1 mm 4 mps 739 mmHg 92%
    11:00 +7°C° 1 mm 4 mps 738 mmHg 91%
    12:00 +8°C° 1 mm 5 mps 738 mmHg 89%
    13:00 +8°C° 0.4 mm 5 mps 737 mmHg 89%
    14:00 +8°C° 0.4 mm 5 mps 737 mmHg 88%
    15:00 +8°C° 0.4 mm 5 mps 737 mmHg 88%
    16:00 +8°C° 0.2 mm 5 mps 737 mmHg 86%
    17:00 +7°C° 0.2 mm 5 mps 737 mmHg 84%
    18:00 +7°C° 0.2 mm 5 mps 738 mmHg 82%
    19:00 +7°C° 0 mm 5 mps 738 mmHg 82%
    20:00 +6°C° 0 mm 5 mps 739 mmHg 82%
    21:00 +6°C° 0 mm 5 mps 739 mmHg 81%
    22:00 +5°C° 0.1 mm 5 mps 739 mmHg 81%
    23:00 +5°C° 0.1 mm 5 mps 740 mmHg 81%

    Day after tomorrow, 20 October, Saturday

    Time Temperature Precipitation Wind Pressure Humidity
    00:00 +3°C° 0.1 mm 5 mps 740 mmHg 80%
    01:00 +4°C° 0 mm 4 mps 740 mmHg 82%
    02:00 +3°C° 0 mm 4 mps 740 mmHg 83%
    03:00 +3°C° 0 mm 4 mps 741 mmHg 84%
    04:00 +3°C° 0.1 mm 4 mps 741 mmHg 86%
    05:00 +2°C° 0.1 mm 3 mps 741 mmHg 88%
    06:00 +2°C° 0.1 mm 3 mps 741 mmHg 89%
    07:00 +2°C° 0.1 mm 3 mps 741 mmHg 88%
    08:00 +3°C° 0.1 mm 3 mps 742 mmHg 87%
    09:00 +3°C° 0.1 mm 3 mps 742 mmHg 86%
    10:00 +3°C° 0.1 mm 3 mps 742 mmHg 84%
    11:00 +3°C° 0.1 mm 3 mps 742 mmHg 82%
    12:00 +4°C° 0.1 mm 3 mps 743 mmHg 79%
    13:00 +3°C° 0.1 mm 3 mps 743 mmHg 79%
    14:00 +3°C° 0.1 mm 3 mps 743 mmHg 78%
    15:00 +3°C° 0.1 mm 3 mps 744 mmHg 77%
    16:00 +2°C° 0 mm 3 mps 744 mmHg 78%
    17:00 +2°C° 0 mm 3 mps 745 mmHg 78%
    18:00 +1°C° 0 mm 3 mps 745 mmHg 79%
    19:00 +1°C° 0 mm 3 mps 746 mmHg 78%
    20:00 +1°C° 0 mm 3 mps 746 mmHg 78%
    21:00 +1°C° 0 mm 3 mps 746 mmHg 78%
    22:00 0°C° 0 mm 3 mps 747 mmHg 79%
    23:00 0°C° 0 mm 3 mps 747 mmHg 79%

    21 October, Sunday

    Time Temperature Precipitation Wind Pressure Humidity
    00:00 0°C° 0 mm 3 mps 748 mmHg 80%
    01:00 -1°C° 0 mm 3 mps 748 mmHg 79%
    02:00 -1°C° 0 mm 3 mps 748 mmHg 78%
    03:00 -1°C° 0 mm 2 mps 749 mmHg 76%
    04:00 -1°C° 0 mm 2 mps 749 mmHg 77%
    05:00 -1°C° 0 mm 2 mps 749 mmHg 77%
    06:00 -1°C° 0 mm 2 mps 750 mmHg 77%
    07:00 -1°C° 0 mm 2 mps 750 mmHg 76%
    08:00 -1°C° 0 mm 3 mps 751 mmHg 74%
    09:00 -1°C° 0 mm 3 mps 751 mmHg 73%
    10:00 0°C° 0 mm 3 mps 751 mmHg 71%
    11:00 +1°C° 0 mm 2 mps 752 mmHg 70%
    12:00 +1°C° 0 mm 2 mps 752 mmHg 68%
    13:00 +1°C° 0 mm 2 mps 752 mmHg 70%
    14:00 +1°C° 0 mm 2 mps 753 mmHg 71%
    15:00 +1°C° 0 mm 2 mps 753 mmHg 72%
    16:00 +1°C° 0 mm 2 mps 753 mmHg 74%
    17:00 +1°C° 0 mm 2 mps 754 mmHg 75%
    18:00 +1°C° 0 mm 1 mps 754 mmHg 77%
    19:00 +1°C° 0 mm 1 mps 754 mmHg 78%
    20:00 +1°C° 0 mm 1 mps 754 mmHg 78%
    21:00 +1°C° 0 mm 1 mps 754 mmHg 79%
    22:00 +1°C° 0 mm 1 mps 754 mmHg 79%
    23:00 +1°C° 0 mm 1 mps 754 mmHg 79%

    22 October, Monday

    Time Temperature Precipitation Wind Pressure Humidity
    00:00 +1°C° 0 mm 1 mps 754 mmHg 79%
    01:00 0°C° 0 mm 1 mps 754 mmHg 80%
    02:00 0°C° 0 mm 1 mps 754 mmHg 81%
    03:00 0°C° 0 mm 1 mps 754 mmHg 82%
    04:00 0°C° 0 mm 1 mps 754 mmHg 84%
    05:00 -1°C° 0 mm 1 mps 754 mmHg 86%
    06:00 -3°C° 0 mm 2 mps 753 mmHg 88%
    07:00 -2°C° 0 mm 2 mps 753 mmHg 86%
    08:00 -2°C° 0 mm 2 mps 753 mmHg 84%
    09:00 -1°C° 0 mm 3 mps 752 mmHg 82%
    10:00 0°C° 0 mm 3 mps 752 mmHg 80%
    11:00 +1°C° 0 mm 3 mps 751 mmHg 78%
    12:00 +1°C° 0 mm 4 mps 751 mmHg 76%
    13:00 +1°C° 0.2 mm 4 mps 750 mmHg 78%
    14:00 +1°C° 0.2 mm 4 mps 750 mmHg 81%
    15:00 +1°C° 0.2 mm 4 mps 749 mmHg 83%
    16:00 +1°C° 0.2 mm 4 mps 748 mmHg 84%
    17:00 +1°C° 0.2 mm 5 mps 748 mmHg 86%
    18:00 +1°C° 0.2 mm 5 mps 747 mmHg 87%
    19:00 +1°C° 0.2 mm 5 mps 746 mmHg 86%
    20:00 +1°C° 0.2 mm 5 mps 745 mmHg 86%
    21:00 +2°C° 0.2 mm 5 mps 745 mmHg 85%
    22:00 +2°C° 0.2 mm 5 mps 744 mmHg 85%
    23:00 +2°C° 0.2 mm 5 mps 743 mmHg 84%

    23 October, Tuesday

    Time Temperature Precipitation Wind Pressure Humidity
    00:00 +2°C° 0.2 mm 5 mps 743 mmHg 84%
    01:00 +2°C° 0.5 mm 5 mps 742 mmHg 84%
    02:00 +2°C° 0.5 mm 5 mps 742 mmHg 84%
    03:00 +2°C° 0.5 mm 5 mps 741 mmHg 84%
    04:00 +2°C° 0.3 mm 5 mps 741 mmHg 85%
    05:00 +2°C° 0.3 mm 5 mps 741 mmHg 85%
    06:00 +2°C° 0.3 mm 5 mps 741 mmHg 86%
    07:00 +3°C° 0.1 mm 5 mps 741 mmHg 86%
    08:00 +3°C° 0.1 mm 5 mps 741 mmHg 86%
    09:00 +4°C° 0.1 mm 4 mps 741 mmHg 86%
    10:00 +3°C° 0.1 mm 5 mps 741 mmHg 85%
    11:00 +3°C° 0.1 mm 5 mps 741 mmHg 83%
    12:00 +5°C° 0.1 mm 5 mps 741 mmHg 82%
    13:00 +5°C° 0.1 mm 5 mps 742 mmHg 80%
    14:00 +5°C° 0.1 mm 5 mps 742 mmHg 78%
    15:00 +5°C° 0.1 mm 5 mps 742 mmHg 76%
    16:00 +3°C° 0 mm 5 mps 743 mmHg 77%
    17:00 +3°C° 0 mm 5 mps 743 mmHg 77%
    18:00 +2°C° 0 mm 5 mps 744 mmHg 77%
    19:00 +3°C° 0 mm 4 mps 744 mmHg 80%
    20:00 +1°C° 0 mm 4 mps 745 mmHg 82%
    21:00 +2°C° 0 mm 3 mps 745 mmHg 84%
    22:00 +1°C° 0 mm 3 mps 746 mmHg 86%
    23:00 +1°C° 0 mm 3 mps 746 mmHg 88%
    Show more